SONATE (44400 NORAD) Tracking and Keplerian Element Data

This shows tracking and keplerian element data for the satellite.

Feedback or suggestion? Click here.




ElementValue
Catalog44400
NameSONATE
Epoch Orbit18668
Epoch Day325.28778474
Epoch Year2022
RAAN294.8174
Inclination97.6598
Eccentricity0.0021499
Argument of Perigee317.1702
Mean Anonmoly42.7854
Mean Motion15.16374054
Decay Rate6.035E-05
L11 44400U 19038Q 22325.28778474 .00006035 00000+0 31269-3 0 9991
L22 44400 97.6598 294.8174 0021499 317.1702 42.7854 15.16374054186684



Live tracking and technical data element details for SONATE (NORAD 44400). SONATE can be tracked NOW for your location showing map with azimuth and elevation plus other details from your city location.







IsCatalogInMostPopularTable: catalog: 44400, numindb: 246
Update: records affected: 1



GetName: 44400 SONATE

Hit Count: updated at: Fri, 02 Dec 2022 13:01:20 GMT